This is the latest recevied weather packets stored in our database for station/object OK1OBR-13. If no packets are shown the sender has not sent any weather packets the latest 1 day(s).
| Time | Temp. | Humidity | Pressure | Rain* | Wind** | Luminosity | Snow |
|---|---|---|---|---|---|---|---|
| 1777975022 | 19.44° C | 46% | 930.5 hPa | 0 mm | 0.89 m/s, 128° | - | - |
| 1777974961 | 19.44° C | 47% | 930.7 hPa | 0 mm | 0.89 m/s, 129° | - | - |
| 1777974902 | 19.44° C | 49% | 930.5 hPa | 0 mm | 0.89 m/s, 145° | - | - |
| 1777974841 | 19.44° C | 46% | 930.7 hPa | 0 mm | 0.89 m/s, 185° | - | - |
| 1777974781 | 19.44° C | 45% | 930.5 hPa | 0 mm | 0.89 m/s, 183° | - | - |
| 1777974721 | 19.44° C | 48% | 930.6 hPa | 0 mm | 1.34 m/s, 194° | - | - |
| 1777974661 | 19.44° C | 48% | 930.7 hPa | 0 mm | 0.89 m/s, 199° | - | - |
| 1777974601 | 19.44° C | 47% | 930.6 hPa | 0 mm | 0.89 m/s, 170° | - | - |
| 1777974540 | 19.44° C | 48% | 930.6 hPa | 0 mm | 0.89 m/s, 191° | - | - |
| 1777974481 | 18.89° C | 49% | 930.7 hPa | 0 mm | 0.89 m/s, 228° | - | - |
| 1777974420 | 19.44° C | 47% | 930.7 hPa | 0 mm | 0.89 m/s, 192° | - | - |
| 1777974361 | 19.44° C | 49% | 930.6 hPa | 0 mm | 0.45 m/s, 211° | - | - |
| 1777974301 | 19.44° C | 47% | 930.6 hPa | 0 mm | 0.89 m/s, 217° | - | - |
| 1777974241 | 19.44° C | 45% | 930.6 hPa | 0 mm | 0.89 m/s, 171° | - | - |
| 1777974181 | 19.44° C | 46% | 930.6 hPa | 0 mm | 0.45 m/s, 199° | - | - |
| 1777974121 | 19.44° C | 46% | 930.5 hPa | 0 mm | 1.34 m/s, 189° | - | - |
| 1777974060 | 19.44° C | 48% | 930.4 hPa | 0 mm | 0.89 m/s, 207° | - | - |
| 1777974001 | 19.44° C | 49% | 930.7 hPa | 0 mm | 0.45 m/s, 181° | - | - |
| 1777973940 | 19.44° C | 45% | 930.6 hPa | 0 mm | 0.89 m/s, 215° | - | - |
| 1777973881 | 19.44° C | 49% | 930.7 hPa | 0 mm | 0.45 m/s, 194° | - | - |
| 1777973821 | 19.44° C | 48% | 930.7 hPa | 0 mm | 0.45 m/s, 143° | - | - |
| 1777973761 | 19.44° C | 45% | 930.6 hPa | 0 mm | 0.45 m/s, 115° | - | - |
| 1777973702 | 19.44° C | 46% | 930.7 hPa | 0 mm | 0.45 m/s, 77° | - | - |
| 1777973641 | 19.44° C | 46% | 930.7 hPa | 0 mm | 0.45 m/s, 130° | - | - |
| 1777973581 | 19.44° C | 50% | 930.6 hPa | 0 mm | 0.45 m/s, 151° | - | - |
* Rain since midnight (hover to see other rain measurements)
** Current wind speed in m/s (hover to see current wind gust speed)